Station: Macquarie Island  

  Atmospheric Gas Attenuation - ITU Rec 676-11   ----------------- dB/100km -----------------
Date Time Temp RH % AH g/m3 Dew Point Wind Direction Speed kph Gust kph Barometer mB Rainfall Since 9am 24GHz 47GHz 76GHz 122GHz 134GHz 241GHz
03/09 12:30 5.9 90 6.49 4.4 44 56 970.6 1.2 15.4 23.1 33.1 87.2 76.3 260.5
03/09 12:20 6.1 91 6.65 4.7 43 50 970.7 1.2 15.7 23.3 33.7 88.7 78.2 267.2
03/09 12:10 5.9 91 6.57 4.5 43 50 970.6 1.2 15.6 23.2 33.5 88.1 77.3 264.2
03/09 12:00 5.9 92 6.64 4.7 41 46 970.6 1.2 15.7 23.3 33.7 88.8 78.2 267.4
03/09 11:50 5.9 92 6.64 4.7 41 46 970.5 1.2 15.7 23.3 33.7 88.8 78.2 267.4
03/09 11:40 5.9 92 6.64 4.7 44 50 970.4 1.2 15.7 23.3 33.7 88.8 78.2 267.4
03/09 11:30 5.9 92 6.64 4.7 44 52 970.4 1.2 15.7 23.3 33.7 88.8 78.2 267.4
03/09 11:20 6 92 6.68 4.8 46 56 970.5 1.2 15.8 23.4 33.8 89.1 78.7 268.9
03/09 11:10 6.2 92 6.77 5 50 61 970.3 1.2 16.0 23.4 34.1 89.8 79.6 272.3
03/09 11:00 6.2 92 6.77 5 52 59 970.2 1.2 16.0 23.4 34.1 89.8 79.6 272.3
03/09 10:50 6.2 93 6.84 5.2 54 63 970.3 1.2 16.2 23.6 34.4 90.6 80.6 275.6
03/09 10:40 6.3 93 6.89 5.3 52 59 970.2 1.2 16.3 23.6 34.6 91.0 81.1 277.5
03/09 10:30 6.4 93 6.93 5.4 50 57 970.2 1.2 16.3 23.6 34.7 91.3 81.5 279.0
03/09 10:20 6.5 94 7.05 5.6 54 65 970.2 1.2 16.6 23.8 35.1 92.5 83.0 284.3
03/09 10:10 6.3 94 6.96 5.4 52 61 970.4 1.2 16.4 23.7 34.8 91.8 82.1 280.9
03/09 10:00 6.3 95 7.04 5.6 48 57 970.6 1.2 16.6 23.9 35.2 92.7 83.1 284.6
03/09 09:50 6.3 95 7.04 5.6 46 57 970.8 1.2 16.6 23.9 35.2 92.7 83.2 284.7
03/09 09:40 5.9 95 6.85 5.2 30 46 971.2 1.2 16.2 23.7 34.6 91.1 81.1 277.3
03/09 09:30 5.8 94 6.74 4.9 24 33 971.6 1.2 16.0 23.5 34.2 90.1 79.7 272.7
03/09 09:20 5.6 94 6.65 4.7 17 26 971.9 1 15.8 23.5 34.0 89.4 78.8 269.2
03/09 09:10 5.3 93 6.45 4.3 19 22 972.3 0.4 15.3 23.2 33.3 87.6 76.5 261.0
03/09 09:00 5.5 93 6.54 4.5 20 32 972.4 0 15.5 23.3 33.6 88.4 77.5 264.6
03/09 08:50 5.5 93 6.54 4.5 22 28 972.7 5.2 15.5 23.3 33.6 88.4 77.5 264.6
03/09 08:40 5.4 93 6.49 4.4 22 28 972.9 5.2 15.4 23.3 33.4 88.0 76.9 262.7
03/09 08:30 5.3 92 6.38 4.1 24 28 973.4 5 15.2 23.2 33.1 87.0 75.6 258.0
03/09 08:20 5.3 92 6.38 4.1 26 32 973.4 5 15.2 23.2 33.1 87.0 75.6 258.0
03/09 08:10 5.3 94 6.52 4.4 26 32 974 4.8 15.5 23.4 33.7 88.6 77.5 264.7
03/09 08:00 5.3 94 6.52 4.4 30 37 974.4 4.6 15.5 23.4 33.7 88.6 77.5 264.8
03/09 07:50 5.4 94 6.56 4.5 32 35 974.5 4.2 15.6 23.5 33.8 88.9 78.0 266.3
03/09 07:40 5.3 94 6.52 4.4 28 32 974.6 4.2 15.5 23.4 33.7 88.6 77.5 264.8
03/09 07:30 5.3 94 6.52 4.4 30 35 974.8 4.2 15.5 23.4 33.7 88.6 77.6 264.9
03/09 07:20 5.3 94 6.52 4.4 32 35 975.1 4.2 15.5 23.5 33.7 88.7 77.6 264.9
03/09 07:10 5.3 94 6.52 4.4 33 37 975.5 4.2 15.5 23.5 33.7 88.7 77.6 265.0
03/09 07:00 5.3 94 6.52 4.4 35 43 975.9 4.2 15.5 23.5 33.7 88.7 77.6 265.1
03/09 06:50 5.4 94 6.56 4.5 35 43 976 4.2 15.6 23.5 33.9 89.1 78.1 266.7
03/09 06:40 5.3 94 6.52 4.4 32 35 975.8 4.2 15.5 23.5 33.7 88.7 77.6 265.1
03/09 06:30 5.3 94 6.52 4.4 33 39 975.5 4.2 15.5 23.5 33.7 88.7 77.6 265.0
03/09 06:20 5.3 94 6.52 4.4 37 44 975.6 4.2 15.5 23.5 33.7 88.7 77.6 265.1
03/09 06:10 5.3 94 6.52 4.4 39 43 975.8 4.2 15.5 23.5 33.7 88.7 77.6 265.1
03/09 06:00 5.3 95 6.59 4.6 37 41 975.7 4.2 15.6 23.6 34.0 89.5 78.6 268.3
03/09 05:50 5.2 95 6.55 4.5 37 41 975.8 4.2 15.6 23.6 33.9 89.2 78.1 266.8
03/09 05:40 5.1 95 6.5 4.4 35 41 975.7 4.2 15.5 23.5 33.7 88.7 77.6 264.8
03/09 05:30 5.1 95 6.5 4.4 35 41 975.7 4.2 15.5 23.5 33.7 88.7 77.6 264.8
03/09 05:20 5.2 95 6.55 4.5 33 39 976.1 4.2 15.6 23.6 33.9 89.2 78.1 266.9
03/09 05:10 5.2 95 6.55 4.5 32 37 975.8 4.2 15.6 23.6 33.9 89.2 78.1 266.8
03/09 05:00 5.2 95 6.55 4.5 33 39 975.8 4.2 15.6 23.6 33.9 89.2 78.1 266.8
03/09 04:50 5.3 95 6.59 4.6 37 43 976.3 4.2 15.6 23.6 34.0 89.5 78.6 268.5
03/09 04:40 5.3 95 6.59 4.6 39 44 976.3 4.2 15.6 23.6 34.0 89.5 78.6 268.5
03/09 04:30 5.3 95 6.59 4.6 37 43 976.4 4.2 15.6 23.6 34.0 89.6 78.6 268.5
03/09 04:20 5.3 95 6.59 4.6 33 39 975.8 4.2 15.6 23.6 34.0 89.5 78.6 268.4
03/09 04:10 5.4 95 6.63 4.7 37 44 975.9 4.2 15.7 23.6 34.1 89.8 79.0 269.9
03/09 04:00 5.4 95 6.63 4.7 41 44 976.2 4.2 15.7 23.6 34.1 89.9 79.0 270.0
03/09 03:50 5.4 94 6.56 4.5 39 43 976.2 4.2 15.6 23.5 33.9 89.1 78.1 266.7
03/09 03:40 5.4 94 6.56 4.5 39 44 976 4.2 15.6 23.5 33.9 89.1 78.1 266.7
03/09 03:30 5.4 94 6.56 4.5 39 46 976 4.2 15.6 23.5 33.9 89.1 78.1 266.7
03/09 03:20 5.4 94 6.56 4.5 41 46 975.8 4.2 15.6 23.5 33.8 89.1 78.1 266.6
03/09 03:10 5.5 94 6.61 4.6 43 54 975.7 4.2 15.7 23.6 34.0 89.5 78.6 268.6
03/09 03:00 5.7 94 6.69 4.8 50 57 975.5 4.2 15.8 23.6 34.2 90.1 79.5 271.6
03/09 02:50 5.6 94 6.65 4.7 50 56 975.4 4.2 15.8 23.6 34.1 89.8 79.0 270.0
03/09 02:40 5.7 95 6.76 5 50 56 975.6 4.2 16.0 23.8 34.5 90.9 80.4 274.9
03/09 02:30 5.8 95 6.81 5.1 52 59 975.4 4.2 16.1 23.8 34.7 91.3 81.0 276.8
03/09 02:20 5.7 96 6.84 5.1 54 63 975.4 4.2 16.2 23.9 34.8 91.7 81.5 278.6
03/09 02:10 5.7 96 6.84 5.1 50 59 975.4 4 16.2 23.9 34.8 91.7 81.5 278.6
03/09 02:00 5.8 96 6.88 5.2 48 56 975.4 3.6 16.3 23.9 35.0 92.0 81.9 280.1
03/09 01:50 5.7 96 6.84 5.1 48 56 975.5 3.6 16.2 23.9 34.8 91.7 81.5 278.6
03/09 01:40 5.7 96 6.84 5.1 48 54 975.6 3.6 16.2 23.9 34.8 91.7 81.5 278.7
03/09 01:30 5.7 96 6.84 5.1 46 56 975.7 3.6 16.2 23.9 34.8 91.7 81.5 278.7
03/09 01:20 5.7 96 6.84 5.1 44 50 975.9 3.6 16.2 23.9 34.9 91.8 81.5 278.7
03/09 01:10 5.7 96 6.84 5.1 46 52 975.9 3.6 16.2 23.9 34.9 91.8 81.5 278.7
03/09 01:00 5.6 96 6.79 5 46 52 976 3.6 16.1 23.8 34.7 91.3 80.9 276.8
03/09 00:50 5.6 96 6.79 5 44 52 976.1 3.6 16.1 23.8 34.7 91.3 80.9 276.8
03/09 00:40 5.5 96 6.75 4.9 41 50 976.1 3.6 16.0 23.8 34.6 91.0 80.5 275.3
03/09 00:30 5.5 96 6.75 4.9 41 56 976.3 3.6 16.0 23.8 34.6 91.0 80.5 275.3
03/09 00:20 5.7 95 6.76 5 44 50 976.2 3 16.0 23.8 34.5 90.9 80.4 275.0
03/09 00:10 5.6 95 6.72 4.9 43 50 976.3 2.4 15.9 23.7 34.4 90.6 80.0 273.5
03/09 00:00 5.6 95 6.72 4.9 43 48 976.3 2.4 15.9 23.7 34.4 90.6 80.0 273.5
02/09 23:50 5.6 95 6.72 4.9 46 50 976.3 2.4 15.9 23.7 34.4 90.6 80.0 273.5
02/09 23:40 5.5 95 6.68 4.8 46 52 976.4 2.4 15.8 23.7 34.3 90.3 79.6 272.0
02/09 23:30 5.6 95 6.72 4.9 46 56 976.5 2.4 15.9 23.7 34.4 90.6 80.0 273.6
02/09 23:20 5.6 95 6.72 4.9 46 54 976.6 2.4 15.9 23.8 34.4 90.6 80.0 273.6
02/09 23:10 5.5 95 6.68 4.8 48 56 976.6 2.4 15.8 23.7 34.3 90.3 79.6 272.1
02/09 23:00 5.6 95 6.72 4.9 48 57 976.6 2.4 15.9 23.8 34.4 90.6 80.0 273.6
02/09 22:50 5.6 95 6.72 4.9 50 57 976.5 2.4 15.9 23.7 34.4 90.6 80.0 273.6
02/09 22:40 5.6 94 6.65 4.7 50 59 976.5 2.4 15.8 23.6 34.2 89.9 79.1 270.3
02/09 22:30 5.6 94 6.65 4.7 50 57 976.5 2.4 15.8 23.6 34.2 89.9 79.1 270.3
02/09 22:20 5.6 94 6.65 4.7 50 57 976.6 2.4 15.8 23.6 34.2 89.9 79.1 270.3
02/09 22:10 5.7 94 6.69 4.8 50 59 976.8 2.4 15.8 23.7 34.3 90.2 79.6 271.9
02/09 22:00 5.6 95 6.72 4.9 48 57 976.9 2.4 15.9 23.8 34.5 90.7 80.1 273.7
02/09 21:50 5.5 94 6.61 4.6 50 59 976.9 2.4 15.7 23.6 34.1 89.6 78.7 268.9
02/09 21:40 5.6 93 6.58 4.6 52 57 976.9 2.4 15.6 23.5 33.9 89.1 78.2 267.1
02/09 21:30 5.5 93 6.54 4.5 50 57 977 2.4 15.5 23.5 33.8 88.8 77.8 265.6
02/09 21:20 5.4 93 6.49 4.4 50 59 977.1 2.4 15.4 23.5 33.6 88.4 77.2 263.7
02/09 21:10 5.4 94 6.56 4.5 48 56 977.2 2.4 15.6 23.6 33.9 89.2 78.2 267.0
02/09 21:00 5.3 94 6.52 4.4 43 50 977.3 2.4 15.5 23.5 33.8 88.9 77.7 265.4
02/09 20:50 5.2 94 6.48 4.3 43 50 977.4 2.4 15.4 23.5 33.7 88.6 77.3 263.9
02/09 20:40 5.1 94 6.43 4.2 43 48 977.5 2.4 15.3 23.4 33.5 88.2 76.7 262.0
02/09 20:30 5.2 93 6.41 4.2 43 48 977.6 2.4 15.3 23.4 33.4 87.8 76.4 260.7
02/09 20:20 5.1 92 6.3 3.9 39 44 977.7 2.4 15.0 23.2 33.0 86.8 75.0 256.0
02/09 20:10 5.1 92 6.3 3.9 37 43 977.8 2.4 15.0 23.2 33.0 86.8 75.0 256.0
02/09 20:00 5.1 92 6.3 3.9 37 41 977.8 2.4 15.0 23.2 33.0 86.8 75.0 256.0

Last Refresh: 03-Sep-2026 12:11:00

Bureau of Meteorology